OPS 4682 DEB, 13131

Orbit data source: Space-Track

OPS 4682 DEB, 13131 is space debris in LEO originally from a launch on Sat, 03 Apr 1965 UTC launched from the Air Force Western Test Range (AFWTR). Debris objects in space refer to the collection of defunct objects orbiting the Earth. Examples of debris include non-operational satellites, rocket bodies, and fragments generated from explosions, collisions, or faulty payload assembly.

Loading next visibility...
Identifier
13131, 1965-027H
Orbit
LEO
Country
Flag of USUS
Related business
Manufacturer
Unknown
Mission
Spacecraft
Bus & Motor
Unknown
Mass
Unknown
Launch date (UTC)
1965-04-03 (61 years ago)
Launch vehicle
Unknown
Launch site
Air Force Western Test Range (AFWTR)
Object type
Payload
Rocket body
Debris
Shape & HBR
Unknown shape, 0.1 m
Radar Cross Section
Medium (>0.1 m² and <1 m²)

Expand to show TLE details & history
Last TLE update: 17 hours ago

TLE from 17 hours ago
0 OPS 4682 DEB
1 13131U 65027H   26175.28723177  .00000702  00000-0  23682-2 0  9999
2 13131  90.2309 353.5581 0031641  51.6304 128.3662 12.98043641631622
Epoch: 2026-06-24T06:53Z
TLE epoch observation values (Epoch: 2026-06-24T06:53:36.824Z)
Latitude
-0.39439°
Longitude
157.70647°
Altitude
1,287.764 km
Speed
7.205 km/s
True Right ascension
11h 34m 13s
True Declination
0° 23' 32"
Sunlit
Object was in daylight at epoch
Visualization orbit readout
Latitude
Unknown
Longitude
Unknown
Altitude
Unknown
Speed
Unknown
Apparent Right ascension
Unknown
Apparent Declination
Unknown
Sunlit
N/A
Visualization observer readout
Local Sidereal Time
10:36:15
Azimuth
Unknown
Elevation
Unknown
Doppler factor
Unknown
Orbital elements
Apogee altitude
1,291.081 km
Perigee altitude
1,242.702 km
Semi-major axis
7,645.028 km
Eccentricity
0.00316
Inclination
90.2309°
RAAN
353.5581°
Arg. of periapsis
51.6304°
True anomaly
128.64979°
Mean anomaly
128.3662°
Eccentric anomaly
128.50806°
Mean motion
3.24694 °/min
Orbital period
110.87 mins
BSTAR
0.0023682
Loading maneuver chart data...
Computing Atmospheric mass density...
Loading historical data...
Loading historical data...
Loading historical data...
Loading historical data...
Loading historical data...
Loading historical data...
Loading historical data...

Documentation

Showing up to 5 results
|